Regional Weather Roundup
Issued by NWS

Home | Current Version | Previous Version | Graphics & Text | Print | Product List | Glossary On
Versions: 1 2 3 4 5 6 7 8 9 10 11 12 13 14 15 16 17 18 19 20 21 22 23 24 25 26 27 28 29 30 31 32 33 34 35 36 37 38 39 40 41 42 43 44 45 46 47 48 49 50
000
ASUS43 KLMK 300102
RWRKY
KENTUCKY REGIONAL WEATHER ROUNDUP
NATIONAL WEATHER SERVICE LOUISVILLE KY
900 PM EDT FRI JUL 29 2016

NOTE "FAIR" INDICATES FEW OR NO CLOUDS BELOW 12,000 FEET
WITH NO SIGNIFICANT WEATHER AND/OR OBSTRUCTIONS TO VISIBILITY.

KYZ001>023-026-027-061>063-070>075-300200-
WESTERN AND SOUTH CENTRAL KENTUCKY

CITY           SKY/WX    TMP DP  RH WIND       PRES   REMARKS
PADUCAH        CLOUDY    76  70  82 SW7       29.93R
HENDERSON      MOCLDY    75  72  88 CALM      29.90S
OWENSBORO      MOCLDY    75  73  93 S3        29.92S
HOPKINSVILLE   CLOUDY    75  72  92 SW5       29.93R
BOWLING GREEN  CLOUDY    78  71  79 W6        29.94R
GLASGOW        NOT AVBL
$$

KYZ024-025-028>034-038-045-046-053-300200-
NORTH CENTRAL KENTUCKY

CITY           SKY/WX    TMP DP  RH WIND       PRES   REMARKS
LOUISVILLE/SDF LGT RAIN  78  73  84 NE5       29.91R
LOUISVILLE/LOU LGT RAIN  76  70  82 S3        29.92R
FORT KNOX      CLOUDY    76  71  86 W5        29.90S
$$

KYZ035>037-039>044-047>052-055>060-089>105-300200-
NORTHEAST KENTUCKY

CITY           SKY/WX    TMP DP  RH WIND       PRES   REMARKS
LEXINGTON      CLOUDY    79  72  79 S7        29.94R
COVINGTON      CLOUDY    77  68  73 SW14G26   29.91R THUNDER
FRANKFORT      LGT RAIN  76  70  82 CALM      29.91S
$$

KYZ054-064>069-076>088-106>120-300200-
SOUTHEAST KENTUCKY

CITY           SKY/WX    TMP DP  RH WIND       PRES   REMARKS
JACKSON        PTCLDY    72  70  93 CALM      29.98S
LONDON         CLOUDY    74  68  81 CALM      29.99R
SOMERSET       CLOUDY    72  70  94 CALM      29.99R
MIDDLESBORO    PTCLDY    73  72  99 CALM      30.01R
MONTICELLO     CLEAR    N/A N/A N/A N10       29.99R
$$




USA.gov is the U.S. government's official web portal to all federal, state and local government web resources and services.